Location: Landeleau
(48.2273°N, 3.7285°W)
Time: 18:06:35
(UTC+00:00)

Cosmos 2341 Rocket - Pass Details

Date: 30 March 2020
Orbit: 968 x 1004 km, 82.9° (Epoch: 28 May)

Event Time Altitude Azimuth Distance (km) Brightness Sun altitude
Rises 21:12:52 0° 352° (N) 3,722 7.7 -23.7°
Reaches altitude 10° 21:15:26 10° 356° (N) 2,774 6.9 -24.0°
Maximum altitude 21:21:46 64° 78° (ENE) 1,107 4.0 -24.9°
Enters shadow 21:22:47 56° 120° (ESE) 1,180 4.0 -25.0°
